sat.trackr.live / text

‹ back to catalog

GLOBAL-34

NORAD 68098 · 2026-043A

PAYLOAD ACTIVE UNKNOWN

§ Identity

Operator
Country
US
Launch date
2026-03-05
Launch site
RLLB
Launch vehicle
Mass (kg)
RCS (m²)

External: N2YO · Heavens-Above · Gunter

§ Orbital elements

Epoch: 2026-05-24T22:53:31.904736Z

Period
93.99 min
Inclination
42.0225°
Eccentricity
0.0002621
Mean motion
15.32103254 rev/d
Perigee alt
467.7 km
Apogee alt
471.3 km
Semi-major
6,847.7 km
B*
2.9691e-4
RAAN
355.0594°
Arg perigee
134.7541°
Mean anomaly
225.3511°
Rev number
1,226

§ Raw data

GLOBAL-341 68098U 26043A   26144.95384149  .00009161  00000+0  29691-3 0  99922 68098  42.0225 355.0594 0002621 134.7541 225.3511 15.32103254 12261

JSON: /api/v1/satellites/68098 · /tle

For live sub-satellite position, see the globe view (requires WebGL).

§ Visibility from observer

Set your observer location to see the next 7 days of passes ≥ 10°. The values pass through the URL so the page stays shareable.

No JS? Fill the form by hand. The geolocation button needs JavaScript.